ATLAS 5 CENTAUR DEB, 46860

Orbit data source: Space-Track

ATLAS 5 CENTAUR DEB, 46860 is space debris in HEO originally from a launch on Wed, 17 Oct 2018 UTC launched from the Air Force Eastern Test Range (AFETR). Debris objects in space refer to the collection of defunct objects orbiting the Earth. Examples of debris include non-operational satellites, rocket bodies, and fragments generated from explosions, collisions, or faulty payload assembly.

Loading next visibility...
Identifier
46860, 2018-079DR
Orbit
HEO
Country
Flag of USUS
Related business
Flag of USUnited Launch Alliance/Lockheed Martin (US)
Manufacturer
ULA Decatur
Mission
Spacecraft
Bus & Motor
Unknown
Mass
Unknown
Launch date (UTC)
2018-10-17 (7 years ago)
Launch vehicle
Unknown
Launch site
Air Force Eastern Test Range (AFETR)
Object type
Payload
Rocket body
Debris
Shape & HBR
Unknown shape, 1.1 m
Radar Cross Section
RCS unknown

Expand to show TLE details & history
Last TLE update: 9 months ago

TLE from 9 months ago
0 ATLAS 5 CENTAUR DEB
1 46860U 18079DR  25024.46124848 -.00000082  00000-0  00000-0 0  9990
2 46860  12.8407 109.8096 5086862 165.5801 217.1635  1.65575041 25569
Epoch: 2025-01-24T11:04Z
TLE epoch observation values (Epoch: 2025-01-24T11:04:11.868Z)
Latitude
-0.00001°
Longitude
179.6886°
Altitude
37,757.321 km
Speed
2.204 km/s
True Right ascension
07h 19m 02s
True Declination
0° 00' 00"
Sunlit
Object was in daylight at epoch
Visualization orbit readout
Latitude
Unknown
Longitude
Unknown
Altitude
Unknown
Speed
Unknown
Apparent Right ascension
Unknown
Apparent Declination
Unknown
Sunlit
N/A
Visualization observer readout
Local Sidereal Time
18:22:23
Azimuth
Unknown
Elevation
Unknown
Doppler factor
Unknown
Orbital elements
Apogee altitude
39,159.264 km
Perigee altitude
8,451.424 km
Semi-major axis
30,183.481 km
Eccentricity
0.50869
Inclination
12.8407°
RAAN
109.8096°
Arg. of periapsis
165.5801°
True anomaly
194.35864°
Mean anomaly
217.1635°
Eccentric anomaly
204.89464°
Mean motion
0.41389 °/min
Orbital period
869.79 mins
BSTAR
0
Loading maneuver chart data...
Computing Atmospheric mass density...

Documentation

Showing up to 5 results
|